Weather History for Burns, OR

Change the Weather History Date:

Thursday, March 27, 2014

  Actual Average Record
Temperature  
Mean Temperature 38 °F 40 °F  
Max Temperature 46 °F 53 °F 72 °F (1966)
Min Temperature 29 °F 27 °F 10 °F (1975)
Degree Days  
Heating Degree Days 27 25  
Month to date heating degree days 688 759  
Since 1 July heating degree days 5971 6287  
Cooling Degree Days 0 0  
Month to date cooling degree days 0 0  
Year to date cooling degree days 0 0  
Moisture  
Dew Point 32 °F    
Average Humidity 77    
Maximum Humidity 100    
Minimum Humidity 53    
Precipitation  
Precipitation 0.15 in 0.03 in 0.40 in (1996)
Month to date precipitation 1.06 0.96  
Year to date precipitation 3.18 3.17  
Sea Level Pressure  
Sea Level Pressure 29.84 in    
Wind  
Wind Speed 11 mph (SW)    
Max Wind Speed 35 mph    
Max Gust Speed 42 mph    
Visibility 8 miles    
Events Rain , Snow , Thunderstorm    
T = Trace of Precipitation, MM = Missing Value Source: NWS Daily Summary

Daily Weather History Graph

Daily Weather History Graph

Search for Another Location

Airport:

Trip Planner

Search our weather history database for the weather conditions in past years. The results will help you decide how hot, cold, wet, or windy it might be!

Date:

Astronomy

Mar. 27, 2014 Rise Set
Actual Time 6:46 AM PDT 7:16 PM PDT
Civil Twilight 6:17 AM PDT 7:45 PM PDT
Nautical Twilight 5:43 AM PDT 8:19 PM PDT
Astronomical Twilight 5:08 AM PDT 8:54 PM PDT
Moon 4:46 AM PDT (3/27) 4:04 PM PDT (3/27)
Length of Visible Light 13h 28m
Length of Day
12h 30m
Waning Crescent, 12% of the Moon is Illuminated
Mar 27
Waning Crescent
Mar 30
New
Apr 7
First Quarter
Apr 15
Full
Apr 22
Last Quarter

Hourly Weather History & Observations

Time (PDT) Temp. Windchill Dew Point Humidity Pressure Visibility Wind Dir Wind Speed Gust Speed Precip Events Conditions
12:53 AM 32.0 °F 24.8 °F 30.0 °F 92% 29.68 in 10.0 mi SW 8.1 mph - N/A   Clear
1:53 AM 30.9 °F 24.3 °F 30.0 °F 96% 29.70 in 10.0 mi SSW 6.9 mph - N/A   Mostly Cloudy
2:53 AM 32.0 °F 25.6 °F 28.9 °F 88% 29.70 in 10.0 mi SSW 6.9 mph - N/A   Overcast
3:53 AM 30.9 °F 22.8 °F 28.0 °F 89% 29.71 in 10.0 mi SSW 9.2 mph - N/A   Partly Cloudy
4:53 AM 32.0 °F 25.6 °F 30.0 °F 92% 29.72 in 10.0 mi SSW 6.9 mph - N/A   Overcast
5:53 AM 30.9 °F 25.2 °F 30.0 °F 96% 29.75 in 9.0 mi South 5.8 mph - 0.00 in   Overcast
6:53 AM 32.0 °F - 30.0 °F 92% 29.78 in 6.0 mi Calm Calm - 0.00 in Snow Light Snow
7:53 AM 33.1 °F 30.0 °F 30.0 °F 89% 29.80 in 10.0 mi SSE 3.5 mph - 0.00 in   Overcast
8:53 AM 34.0 °F 26.6 °F 30.0 °F 85% 29.81 in 10.0 mi SSE 9.2 mph - N/A   Overcast
9:53 AM 39.0 °F 32.3 °F 30.9 °F 73% 29.81 in 10.0 mi SSW 10.4 mph - N/A   Overcast
10:53 AM 39.9 °F 31.1 °F 28.9 °F 65% 29.83 in 10.0 mi SW 17.3 mph 25.3 mph N/A   Overcast
11:53 AM 46.0 °F 37.6 °F 30.9 °F 56% 29.81 in 10.0 mi SW 24.2 mph 34.5 mph 0.00 in   Overcast
12:53 PM 43.0 °F 33.3 °F 30.0 °F 60% 29.84 in 10.0 mi SW 25.3 mph 39.1 mph 0.00 in   Overcast
1:29 PM 36.0 °F 25.6 °F 33.1 °F 89% 29.82 in 2.0 mi SW 18.4 mph 27.6 mph 0.01 in Rain Rain
1:41 PM 39.9 °F 31.8 °F 37.0 °F 89% 29.81 in 7.0 mi WSW 15.0 mph - 0.04 in Rain Light Rain
1:53 PM 42.1 °F 33.3 °F 37.9 °F 85% 29.84 in 10.0 mi SW 19.6 mph 26.5 mph 0.04 in   Scattered Clouds
2:53 PM 39.9 °F 29.7 °F 32.0 °F 73% 29.84 in 8.0 mi West 23.0 mph 33.4 mph 0.00 in Rain Light Rain
3:53 PM 41.0 °F 32.5 °F 34.0 °F 76% 29.86 in 9.0 mi SW 17.3 mph 40.3 mph 0.05 in Rain Light Rain
4:35 PM 37.0 °F 26.2 °F 33.1 °F 86% 29.84 in 7.0 mi West 21.9 mph 29.9 mph 0.00 in Snow Light Snow
4:48 PM 37.4 °F 27.2 °F 33.8 °F 87% 29.85 in 8.0 mi West 19.6 mph 32.2 mph 0.01 in Rain , Thunderstorm Light Rain
4:53 PM 36.0 °F 24.7 °F 34.0 °F 93% 29.91 in 5.0 mi West 21.9 mph 34.5 mph 0.01 in Rain , Thunderstorm Rain
5:00 PM 35.1 °F 23.0 °F 33.1 °F 92% 29.86 in 1.8 mi West 24.2 mph 34.5 mph 0.01 in Snow Light Snow
5:09 PM 35.1 °F 26.9 °F 32.0 °F 89% 29.84 in 1.8 mi SW 11.5 mph 32.2 mph 0.02 in Snow Light Snow
5:12 PM 36.0 °F 28.5 °F 32.0 °F 86% 29.84 in 3.0 mi SW 10.4 mph - 0.02 in Snow Light Snow
5:27 PM 39.9 °F 32.9 °F 34.0 °F 79% 29.84 in 10.0 mi West 11.5 mph - 0.02 in   Mostly Cloudy
5:53 PM 37.0 °F 25.6 °F 32.0 °F 82% 29.92 in 6.0 mi WSW 24.2 mph 29.9 mph 0.04 in Rain Light Rain
6:02 PM 37.0 °F 28.1 °F 32.0 °F 82% 29.86 in 6.0 mi WSW 15.0 mph 29.9 mph 0.00 in Rain Light Rain
6:16 PM 37.9 °F 31.5 °F 34.0 °F 86% 29.86 in 10.0 mi WSW 9.2 mph - 0.00 in   Overcast
6:53 PM 37.0 °F 31.0 °F 33.1 °F 86% 29.92 in 10.0 mi West 8.1 mph - 0.00 in   Overcast
7:53 PM 34.0 °F 31.0 °F 30.9 °F 89% 29.94 in 10.0 mi West 3.5 mph - 0.00 in   Partly Cloudy
8:53 PM 34.0 °F 27.2 °F 32.0 °F 92% 29.97 in 10.0 mi SW 8.1 mph - N/A   Overcast
9:53 PM 33.1 °F 26.9 °F 30.9 °F 92% 29.97 in 10.0 mi WSW 6.9 mph - 0.01 in   Clear
10:53 PM 30.0 °F - 28.9 °F 96% 30.00 in 10.0 mi Calm Calm - N/A   Clear
11:53 PM 30.0 °F 26.5 °F 28.9 °F 96% 30.00 in 10.0 mi North 3.5 mph - N/A   Mostly Cloudy